Home   Weather   Bad Radkersburg   Past weeks

Flag for Austria Past Weather in Bad Radkersburg, Styria, Austria — Yesterday and Last 2 Weeks

Now
68 °F

Overcast.


Feels Like: 68 °F
Forecast: 64 / 88 °F
Wind: 1 mph from Northeast

Location: Murska Sobota

Current Time: Jul 22, 2017 at 8:54:43 am

Latest Report: Jul 22, 2017 at 7:00 am


Visibility: N/A

Pressure: 29.93 "Hg

Humidity: 84%

Dew Point: 64 °F

Location of Bad RadkersburgLocation

Past Weather in Bad Radkersburg — Graph

°F

Bad Radkersburg Temperature Yesterday

Maximum temperature yesterday: 88 °F (at 6:00 pm)
Minimum temperature yesterday: 63 °F (at 6:00 am)
Average temperature yesterday: 77 °F

High & Low Weather Summary for the Past Weeks

 TemperatureHumidityPressure
High95 °F (Jul 10, 5:00 pm)98% (Jul 12, 6:00 am)30.22 "Hg (Jul 12, 6:00 am)
Low52 °F (Jul 17, 5:00 am)21% (Jul 10, 5:00 pm)29.74 "Hg (Jul 10, 8:00 pm)
Average73 °F64%29.98 "Hg
* Reported Jul 7 7:00 am — Jul 22 7:00 am, Bad Radkersburg. Weather by CustomWeather, © 2017

Note: Actual official high and low records may vary slightly from our data, if they occured in-between our weather recording intervals... More about our weather records

Advertising

Bad Radkersburg Weather History for the Previous 24 Hours

Scroll right to see more
 ConditionsComfort  
Time TempWeatherWind HumidityBarometerVisibility
7:00 am
Sat, Jul 22
68 °FOvercast.1 mph84%29.93 "HgN/A
6:00 am68 °FOvercast.3 mph86%29.92 "HgN/A
5:00 am67 °FLight rain. Overcast.No wind89%29.92 "HgN/A
4:00 am66 °FOvercast.No wind88%29.90 "HgN/A
3:00 am69 °FOvercast.1 mph82%29.91 "HgN/A
2:00 am67 °FOvercast.2 mph83%29.93 "HgN/A
1:00 am67 °FClear.1 mph86%29.92 "HgN/A
12:00 am68 °FClear.1 mph81%29.92 "HgN/A
11:00 pm
Fri, Jul 21
71 °FClear.1 mph74%29.91 "HgN/A
10:00 pm74 °FOvercast.1 mph68%29.92 "HgN/A
9:00 pm78 °FClear.1 mph54%29.90 "HgN/A
8:00 pm82 °FSunny.1 mph49%29.89 "HgN/A
7:00 pm86 °FSunny.2 mph38%29.88 "HgN/A
6:00 pm88 °FSunny.2 mph37%29.88 "HgN/A
5:00 pm87 °FSunny.1 mph38%29.90 "HgN/A
4:00 pm87 °FSunny.2 mph41%29.91 "HgN/A
3:00 pm87 °FPassing clouds.2 mph42%29.93 "HgN/A
2:00 pm86 °FScattered clouds.2 mph42%29.94 "HgN/A
1:00 pm85 °FPartly sunny.1 mph44%29.96 "HgN/A
12:00 pm82 °FSunny.2 mph47%29.98 "HgN/A
11:00 am80 °FSunny.2 mph52%29.98 "HgN/A
10:00 am78 °FSunny.1 mph55%29.98 "HgN/A
9:00 am76 °FSunny.1 mph60%29.98 "HgN/A
8:00 am73 °FSunny.1 mph67%29.97 "HgN/A
Weather by CustomWeather, © 2017

See weather overviewHow to use our weather pages